User: anonymous   Login
Location: Theydon Bois
(51.6750°N, 0.1050°E)
Time: 21:34:02
(UTC+00:00)
Language:

Geosat - Orbit

View from above orbital plane
View from above orbital plane
View from above satellite
View from above satellite

Ground track
Ground track

The orbit data is extracted from the following two-line orbital elements,

1 15595U 85021A   18048.22866157 -.00000067  00000-0  22577-4 0  9990
2 15595 108.0403 244.1180 0002388 282.6348 172.6821 14.38060596725606
Epoch (UTC): 17 February 2018 05:29:16
Eccentricity: 0.0002388
inclination: 108.0403°
perigee height: 763 km
apogee height: 766 km
right ascension of ascending node: 244.1180°
argument of perigee: 282.6348°
revolutions per day: 14.38060596
mean anomaly at epoch: 172.6821°
orbit number at epoch: 72560

The dashed part of the orbit path shows where the satellite is in the earth's shadow,  

DLR